SL-8 R/B, 1575

Orbit data source: Space-Track

SL-8 R/B, 1575 is space debris in LEO originally from a launch on Fri, 03 Sep 1965 UTC launched from the Tyuratam Missile And Space Complex (TTMTR). Debris objects in space refer to the collection of defunct objects orbiting the Earth. Examples of debris include non-operational satellites, rocket bodies, and fragments generated from explosions, collisions, or faulty payload assembly.

Loading next visibility...
Identifier
1575, 1965-070F
Orbit
LEO
Country
Flag of CISCIS
Related business
Manufacturer
Yuzhnoe
Mission
Spacecraft
Bus & Motor
S3, Unknown motor
Mass
1,434 kg wet, 1,434 kg dry
Launch date (UTC)
1965-09-03 (60 years ago)
Launch vehicle
Unknown
Launch site
Tyuratam Missile And Space Complex (TTMTR)
Object type
Payload
Rocket body
Debris
Shape & HBR
Unknown
Radar Cross Section
Large (>1 m²)

Expand to show TLE details & history
Last TLE update: 1 day ago

TLE from 1 day ago
0 SL-8 R/B
1 01575U 65070F   25308.87476667 -.00000090  00000-0  42952-4 0  9991
2 01575  56.1264   3.9311 0100702 136.8513  34.1485 12.57012109762556
Epoch: 2025-11-04T20:59Z
TLE epoch observation values (Epoch: 2025-11-04T20:59:39.840Z)
Latitude
6.88394°
Longitude
-179.96594°
Altitude
1,370.875 km
Speed
7.204 km/s
True Right ascension
11h 57m 13s
True Declination
6° 50' 47"
Sunlit
Object was in daylight at epoch
Visualization orbit readout
Latitude
Unknown
Longitude
Unknown
Altitude
Unknown
Speed
Unknown
Apparent Right ascension
Unknown
Apparent Declination
Unknown
Sunlit
N/A
Visualization observer readout
Local Sidereal Time
22:08:19
Azimuth
Unknown
Elevation
Unknown
Doppler factor
Unknown
Orbital elements
Apogee altitude
1,513.796 km
Perigee altitude
1,356.434 km
Semi-major axis
7,813.252 km
Eccentricity
0.01007
Inclination
56.1264°
RAAN
3.9311°
Arg. of periapsis
136.8513°
True anomaly
34.80307°
Mean anomaly
34.1485°
Eccentric anomaly
34.4751°
Mean motion
3.14265 °/min
Orbital period
114.55 mins
BSTAR
0.000042952
Loading maneuver chart data...
Computing Atmospheric mass density...
Loading historical data...
Loading historical data...
Loading historical data...
Loading historical data...
Loading historical data...
Loading historical data...
Loading historical data...
Other satellites on launch #70 in the year 1965 (1965-09-03 UTC)

Documentation

Showing up to 5 results
|